Погода в Белграде

Сербия     44°49′01″N   20°27′43″E
темп.,
°C
ветер,
м/с
пор.,
м/с
влажн.,
%
обл.,
%
осадки,
мм/ч
давл.,
гПа
погр.,
м
13 мая, чт
чт1323:00+12юв24924 0.8 1008132
02:00+11ю23915 1.4 100768
05:00+12ююз238772 0.0 100687
08:00+15ююз127298 0.0 1007190
11:00+19зюз135199 0.4 10061254
14:00+20зюз4642100 0.4 10052025
17:00+17ю6763100 0.3 1005633
20:00+15зсз1271100 0.6 1006121
14 мая, пт
пт1423:00+12зсз3891100 0.3 1008332
02:00+12зюз2596100 3.3 1008242
05:00+12ю239433 3.2 1009105
08:00+14ююв248397 3.4 1010300
11:00+18зюз23589 0.9 10101147
14:00+21з254589 1.3 10092164
17:00+19зюз125480 0.0 1008536
20:00+16вюв236969 0.4 100967
15 мая, сб
сб1523:00+13зюз128855 1.1 101147
02:00+12ююв2291100 1.6 101129
05:00+11ююв119196 0.0 101118
08:00+14ссв0082100 0.0 1012214
11:00+18ссв1159100 0.1 1011774
14:00+22ююз1145100 0.2 10091784
17:00+20зюз2150100 0.0 10081129
20:00+18ссз116258 0.1 100840
16 мая, вс
вс1623:00+15ююз117247 0.4 100915
02:00+13ююз11825 0.9 100917
05:00+12юз118336 0.0 100919
08:00+16зюз1269100 0.0 1010315
11:00+20з33546 0.0 1009967
14:00+21сз454617 0.1 10081831
17:00+18зсз5665100 0.2 1009688
20:00+15зсз2373100 0.2 1009155
17 мая, пн
пн1723:00+14ююз1277100 0.0 100930
02:00+14юз1177100 0.0 100917
05:00+13ю128896 0.2 1008115
08:00+14ююв249198 2.3 1008299
11:00+16юв248699 0.3 1008361
14:00+21зюз356399 1.9 10071220
17:00+17зюз248299 0.7 1007111
20:00+16зсз228588 1.4 100724